World > North America > United States > Texas > Heath

Hourly Heath, TX Regional Weather

Feedback E-mail the Weather

Quick WX

Heath, TX Weather Maps

°F °C°F °C
Heath Weather Map
UTC Time: 8/19/2022, 11:59
Your Time:

Heath, TX Regional Weather

Expires:202208191200;;309011
ASUS44 KFWD 191115
RWRTX 
NORTH TEXAS HOURLY WEATHER ROUNDUP
NATIONAL WEATHER SERVICE FORT WORTH TX
600 AM CDT FRI AUG 19 2022

NOTE: "FAIR" INDICATES FEW OR NO CLOUDS BELOW 12,000 FEET WITH NO
SIGNIFICANT WEATHER AND/OR OBSTRUCTIONS TO VISIBILITY.


TXZ091>094-102>105-117-120-121-131>134-191200-
NORTH CENTRAL TEXAS
  
CITY           SKY/WX    TMP DP  RH WIND       PRES   REMARKS
SHRMAN/DENISON CLOUDY    71  70  96 E3        29.98S FOG              
GAINESVILLE    FOG       69  69 100 CALM      29.98S VSB 1/4          
BOWIE          FOG       70  70  99 CALM      29.97S VSB 1/4          
BRIDGEPORT     CLOUDY    73  73 100 CALM      29.98S FOG              
DECATUR        FOG       72  71  96 CALM      29.97S VSB 1/4          
DENTON         CLOUDY    74  73  97 CALM      29.95S                  
MCKINNEY       FOG       71  70  96 E6        29.95S VSB 1            
BONHAM         FOG       68  68  99 CALM      29.96S VSB 1/2          
GREENVILLE     CLOUDY    71  71  99 CALM      29.96R FOG              
ROCKWALL       CLOUDY    72  72 100 E5        29.96S FOG              
TERRELL        CLOUDY    74  71  91 NE3       29.95S                  
WAXAHACHIE     CLOUDY    73  73 100 CALM      29.96S FOG              
CLEBURNE       MOCLDY    73  73 100 NE5       29.95S FOG              
GRANBURY       FAIR      71  70  96 CALM      29.96S                  
$$


SKY/WX - Weather  TMP - Temperature  DP - Dew Point  RH - Humidity
WIND - Wind Direction/Speed PRES - Barometric Pressure VSB - Visibility
WCI - Wind Chill Index E13G22 Wind - East Wind 13 mph/Gusts of 22 mph

Trending Headlines

Heath Radar Loop



Heath Quick Facts


National Two Day Weather Forecast


E-mail the Heath Weather Forecast

Voice your opinion or tell us about page issues...